#timestamp,LO_Frequency,Hit,StdDev 
1587333615.4,286046997.0,N
1587333635.2,286046997.8,N
1587333655.0,286046995.1,Y
1587333655.9,286046995.1,P
1587333675.8,286046999.1,N
1587333695.6,286046998.7,N
1587333715.5,286047001.2,N
1587333735.3,286047000.2,N
1587333755.1,286046998.3,N
1587333775.9,286046998.3,N
1587333795.7,286046998.7,N
1587333815.6,286047002.4,N
1587333835.4,286047000.3,N
1587333855.2,286047000.8,N
1587333875.1,286047000.4,N
1587333876.0,286047000.4,N
1587333895.8,286047000.9,N
1587333915.6,286046999.9,N
1587333935.5,286047001.0,N
1587333955.3,286047002.8,N
1587333975.2,286047001.9,N
1587333995.9,286047001.5,N
1587334015.7,286047000.6,N
1587334035.6,286046998.6,N
1587334055.4,286046998.1,N
1587334075.3,286047000.6,N
1587334095.1,286047001.6,N
1587334096.0,286047001.6,N
1587334115.8,286047002.6,N
1587334135.7,286047001.3,N
1587334155.5,286047001.9,N
1587334175.3,286047002.3,N
1587334195.2,286047000.8,N
1587334215.0,286047000.6,N
1587334215.9,286047000.6,N
1587334235.8,286047000.1,N
1587334255.6,286047000.6,N
1587334275.4,286047000.5,N
1587334295.3,286046998.5,N
1587334315.1,286047000.5,N
1587334335.9,286046999.9,N
1587334355.7,286047000.1,N
1587334375.5,286047000.1,N
1587334395.4,286047000.1,N
1587334415.2,286047002.6,N
1587334435.1,286046999.7,N
1587334436.0,286046999.7,N
1587334455.8,286047001.1,N
1587334475.6,286047001.2,N
1587334495.5,286047000.7,N
1587334515.3,286046998.6,N
1587334535.1,286046999.2,N
1587334555.9,286046996.5,Y
1587334575.7,286046997.0,P
1587334595.6,286046996.9,N
1587334615.4,286046997.7,N
1587334635.2,286046997.1,N
1587334655.1,286046998.6,N
1587334656.0,286046998.6,N
1587334675.8,286047001.2,N
1587334695.7,286047000.7,N
1587334715.5,286047001.6,N
1587334735.3,286047004.3,N
1587334755.2,286047002.0,N
1587334775.0,286047002.6,N
1587334775.9,286047002.6,N
1587334795.8,286047000.0,N
1587334815.6,286047000.2,N
1587334835.4,286046998.1,N
1587334855.3,286047000.3,N
1587334875.1,286047000.0,N
1587334895.8,286047001.6,N
1587334915.7,286047004.1,N
1587334935.5,286047002.1,N
1587334955.4,286047001.7,N
1587334975.2,286047004.4,N
1587334995.0,286047000.1,N
1587334995.9,286047000.1,N
1587335015.8,286047000.3,N
1587335035.6,286047004.4,N
1587335055.5,286047001.7,N
1587335075.3,286047002.4,N
1587335095.1,286047003.9,N
1587335115.9,286047001.7,N
1587335135.7,286047002.2,N
1587335155.5,286047001.5,N
1587335175.4,286047001.9,N
1587335195.2,286047002.7,N
1587335215.1,286047002.5,N
1587335216.0,286047002.5,N
1587335235.8,286047000.5,N
1587335255.6,286047001.9,N
1587335275.5,286047002.4,N
1587335295.3,286046999.7,N
1587335315.2,286047002.5,N
1587335335.9,286047000.7,N
1587335355.7,286047000.8,N
1587335375.6,286047001.0,N
1587335395.4,286046998.7,N
1587335415.2,286047000.8,N
1587335435.1,286047001.2,N
1587335436.0,286047001.2,N
1587335455.8,286046998.2,N
1587335475.7,286047000.4,N
1587335495.5,286047002.2,N
1587335515.3,286047002.1,N
1587335535.2,286047000.7,N
1587335555.0,286047000.4,N
1587335555.9,286047000.4,N
1587335575.8,286046999.8,N
1587335595.6,286047000.0,N
1587335615.4,286047000.4,N
1587335635.3,286046999.7,N
1587335655.1,286047000.7,N
1587335675.8,286046998.1,N
1587335695.7,286046999.6,N
1587335715.5,286047001.0,N
1587335735.4,286046999.6,N
1587335755.2,286046997.1,N
1587335775.0,286046996.5,N
1587335775.9,286046996.5,N
1587335795.8,286046997.0,N
1587335815.6,286046996.5,N
1587335835.5,286046997.0,N
1587335855.3,286046995.0,N
1587335875.1,286046997.0,N
1587335895.9,286046997.1,N
1587335915.7,286046995.4,N
1587335935.5,286046995.3,N
1587335955.4,286046994.9,N
1587335975.2,286046996.1,N
1587335995.1,286046994.5,N
1587335996.0,286046994.5,N
1587336015.8,286046994.2,N
1587336035.6,286046994.1,N
1587336055.5,286046993.9,N
1587336075.3,286046995.2,N
1587336095.1,286046995.0,N
1587336115.9,286046995.7,N
1587336135.7,286046993.4,Y
1587336155.6,286046998.4,P
1587336175.4,286046998.7,N
1587336195.2,286046998.6,N
1587336215.1,286047000.8,N
1587336216.0,286047000.8,N
1587336235.8,286046998.5,N
1587336255.7,286046998.3,N
1587336275.5,286046999.5,N
1587336295.3,286046996.7,N
1587336315.2,286046996.9,N
1587336335.0,286046996.8,N
1587336335.9,286046996.8,N
1587336355.7,286046998.5,N
1587336375.6,286047001.1,N
1587336395.4,286047000.8,N
1587336415.3,286046999.3,N
1587336435.1,286046999.1,N
1587336455.8,286046996.5,N
1587336475.7,286046999.5,N
1587336495.5,286046999.3,N
1587336515.4,286046998.5,N
1587336535.2,286046998.9,N
1587336555.0,286046999.9,N
1587336555.9,286046999.9,N
1587336575.8,286046998.5,N
1587336595.6,286046998.8,N
1587336615.4,286046998.4,N
1587336635.3,286047000.8,N
1587336655.1,286046998.7,N
1587336675.9,286047011.9,Y
1587336695.7,286046999.1,P
1587336715.5,286046999.1,P
1587336735.4,286046999.5,P
1587336755.2,286046997.0,Y
1587336775.1,286046997.0,P
1587336776.0,286046997.0,N
1587336795.8,286047000.8,N
1587336815.6,286046999.4,N
1587336835.5,286046997.0,N
1587336855.3,286046998.3,N
1587336875.1,286047000.3,N
1587336895.9,286047001.5,N
1587336915.7,286047003.9,N
1587336935.6,286047003.0,N
1587336955.4,286047005.4,N
1587336975.2,286047005.8,N
1587336995.1,286047005.4,N
1587336996.0,286047005.4,N
1587337015.8,286047003.6,N
1587337035.7,286047002.9,N
1587337055.5,286047003.2,N
1587337075.3,286047006.0,N
1587337095.2,286047006.0,N
1587337115.0,286047005.3,N
1587337115.9,286047005.3,N
1587337135.8,286047006.0,N
1587337155.6,286047001.8,N
1587337175.4,286047002.0,N
1587337195.3,286047003.8,N
